Regional Weather Roundup
Issued by NWS Sterling, VA

Home | Current Version | Previous Version | Graphics & Text | Print | Product List | Glossary On
Versions: 1 2 3 4 5 6 7 8 9 10 11 12 13 14 15 16 17 18 19 20 21 22 23 24 25 26 27
000
ASUS41 KLWX 280510
RWRLWX

REGIONAL WEATHER ROUNDUP
NATIONAL WEATHER SERVICE BALTIMORE MD/WASHINGTON DC
100 AM EDT THU APR 28 2016

Note: "FAIR" indicates few or no clouds below 12,000 feet
with no significant weather and/or obstructions to visibility.
 TC=TEMPERATURE CELSIUS

 * =Non NWS site. Station does not report precipitation (e.g. rain,
    snow, etc.), thunder, or fog.

DCZ001-MDZ009-015-VAZ040>042-051-053>054-280600-
WASHINGTON METRO

CITY           SKY/WX    TMP DP  RH WIND       PRES   REMARKS
WASHINGTON NAT CLOUDY    54  49  83 SW7       29.93F
DULLES         CLOUDY    54  50  86 S5        29.93S
ANDREWS AFB    CLOUDY    52  49  92 S2        29.91S
FT BELVOIR     CLOUDY    53  50  88 SE2       29.93S
QUANTICO       CLOUDY    55  51  86 CALM      29.94S
COLLEGE PARK*  FAIR      50  46  87 CALM      29.93S
LEESBURG*      MOCLDY    54  54 100 S3        29.93S
MANASSAS*      CLOUDY    54  54 100 CALM      29.93S
GAITHERSBURG*  PTCLDY    50  45  81 CALM      29.96S

$$

MDZ006>007-011-014-280600-
BALTIMORE METRO

CITY           SKY/WX    TMP DP  RH WIND       PRES   REMARKS
BWI AIRPORT    CLOUDY    51  48  89 CALM      29.93S
MD SCIENCE CTR   N/A     54  47  77 MISG      29.94R
MARTIN STATE   CLOUDY    54  52  94 CALM      29.95S
ANNAPOLIS      CLOUDY    53  49  86 CALM      29.93S
FORT MEADE*    CLOUDY    48  46  93 CALM      29.95F

$$

MDZ012-015-019>023-280600-
MARYLAND EASTERN SHORE

CITY           SKY/WX    TMP DP  RH WIND       PRES   REMARKS
OCEAN CITY     CLOUDY    51  47  86 NE3       29.93S
SALISBURY      CLOUDY    49  46  90 CALM      29.93S
CAMBRIDGE*       N/A     46  46 100 E3        29.93F
EASTON*        CLOUDY   N/A N/A N/A CALM      29.97S

$$

MDZ017>025-280600-
SOUTHERN MARYLAND

CITY           SKY/WX    TMP DP  RH WIND       PRES   REMARKS
PATUXENT RIVER CLOUDY    53  49  86 CALM      29.92S
ST INIGOES     CLOUDY    54  52  93 CALM      29.92R
LEONARDTOWN*   PTCLDY    50  46  87 CALM      29.94S

$$

MDZ003>005-280600-
NORTH CENTRAL MARYLAND

CITY           SKY/WX    TMP DP  RH WIND       PRES   REMARKS
FREDERICK*     CLOUDY    48  48 100 CALM      29.95S FOG
HAGERSTOWN APT CLOUDY    54  50  86 CALM      29.92R FOG
WESTMINSTER*   PTCLDY    48  45  87 E3        29.92S FOG

$$

MDZ501>502-280600-
WESTERN MARYLAND

CITY           SKY/WX    TMP DP  RH WIND       PRES   REMARKS
OAKLAND*       MOCLDY    52  50  93 SE7       29.91S
CUMBERLAND*    MOCLDY    54  50  87 CALM      29.95R

$$

VAZ025>031-280600-
SHENANDOAH VALLEY

CITY           SKY/WX    TMP DP  RH WIND       PRES   REMARKS
WINCHESTER*    CLOUDY    52  50  93 CALM      29.91R FOG
FRONT ROYAL*   CLOUDY    54  52  94 CALM      29.89S
LURAY*         CLOUDY    54  54 100 CALM      29.91R FOG
NEW MARKET*    CLOUDY    53  52  96 CALM      29.90R
STAUNTON*      CLOUDY    59  59 100 CALM      29.92S FOG
WAYNESBORO*    CLOUDY    55  54  96 MISG      29.90F

$$

WVZ021-048>050-054>055-280600-
EASTERN WEST VIRGINIA PANHANDLE

CITY           SKY/WX    TMP DP  RH WIND       PRES   REMARKS
MARTINSBURG    CLOUDY    49  48  97 CALM      29.91R FOG
PETERSBURG*    MOCLDY    58  53  84 CALM      29.91F

$$

VAZ036>039-050-280600-
CENTRAL FOOTHILLS

CITY           SKY/WX    TMP DP  RH WIND       PRES   REMARKS
CHARLOTTESVILL CLOUDY    57  54  89 CALM      29.91F
CULPEPER*      CLOUDY    56  54  92 CALM      29.93F
ORANGE*        CLOUDY    55  55 100 CALM      29.94S
GORDONSVILLE*  CLOUDY    55  55  99 CALM      29.92S
WARRENTON*     CLOUDY    55  49  78 SE3       29.92S

$$

VAZ055>057-280600-
NORTH AND CENTRAL PIEDMONT

CITY           SKY/WX    TMP DP  RH WIND       PRES   REMARKS
FREDERICKSBRG* CLOUDY    55  55  99 CALM      29.93R
STAFFORD*      CLOUDY    53  51  93 CALM      29.97S

$$

NCZ024-NYZ072-PAZ021-071-VAZ022-071-280600-
OTHER REGIONAL OBSERVATIONS

CITY           SKY/WX    TMP DP  RH WIND       PRES   REMARKS
NEW YORK CITY  PTCLDY    53  44  71 W5        29.95R
PHILADELPHIA   CLOUDY    51  44  77 NW5       29.95F
PITTSBURGH     CLOUDY    55  32  41 CALM      29.90R
ROANOKE        CLOUDY    65  63  93 SE13      29.90F
RICHMOND       LGT RAIN  56  55  97 E3        29.92R FOG
RALEIGH        CLOUDY    67  65  93 E5        29.88R

$$

ANZ530>537-280600-
MARINE OBSERVATIONS

STATION/POSITION TIME  TEMP    WIND        PRES
                       AIR SEA DIR/SP/G
                 (UTC) (F)     (DEG/KT/KT) (MB)
THOMAS PT LIGHT  0500   54 58  170/  4/  5 1014.9S
BALT KEY BRIDGE  0400   54     190/  3/  3 1013.3F
COVE POINT       0400   53     180/  4/  6 1014.0F
LEWISETTA        0400   55 62  160/  7/  8 1013.0F
SOLOMONS ISLAND  0400   54 61  100/  1/  3   N/A
PINEY POINT      0400          140/  7/  9   N/A

$$





USA.gov is the U.S. government's official web portal to all federal, state and local government web resources and services.